Terminal Aerodrome Forecast
Issued by NWS

Current Version | Previous Version | Graphics & Text | Print | Product List | Glossary On
Versions: 1 2 3 4 5 6 7 8 9 10 11 12 13 14 15 16 17 18 19 20 21
000
FTUS41 KPBZ 301100
TAFHLG
TAF
KHLG 301120Z 3012/3112 VRB03KT P6SM BKN050
     FM301700 25012KT P6SM VCSH BKN035
     FM310000 23005KT P6SM BKN050=

USA.gov is the U.S. government's official web portal to all federal, state and local government web resources and services.